1506931200.28,45531,18.19,74288.3,5.97,-37.39,-38.23,0,*74
1506931201.5,45532,18.19,74288.3,5.97,-35.17,-36.07,0,*71
1506931202.75,45533,18.19,74290.0,5.99,-35.07,-35.89,0,*7A
1506931203.96,45534,18.19,74292.0,5.99,-34.13,-34.77,0,*79
1506931205.21,45535,18.19,74294.0,6.01,-35.59,-36.49,0,*7A
1506931206.44,45536,18.19,74294.0,6.03,-35.59,-36.37,0,*72
1506931207.69,45537,18.19,74294.0,6.01,-36.61,-37.45,0,*7D
1506931208.92,45538,18.19,74294.5,6.03,-36.13,-36.97,0,*7B
1506931210.15,45539,18.19,74292.8,6.03,-35.35,-36.01,0,*72
1506931211.41,45540,18.19,74294.3,6.01,-35.77,-36.61,0,*7E
1506931212.61,45541,18.19,74292.8,6.03,-36.55,-37.45,0,*79
1506931213.87,45542,18.19,74290.5,6.01,-37.63,-38.61,0,*75
1506931215.13,45543,18.19,74286.0,6.03,-37.09,-37.93,0,*78
1506931216.34,45544,18.19,74288.3,6.03,-36.97,-37.87,0,*7C
1506931217.62,45545,18.19,74284.0,6.01,-38.67,-39.97,0,*71
1506931218.85,45546,18.19,74286.5,5.99,-39.29,-40.35,0,*7D
1506931220.11,45547,18.19,74286.0,5.97,-40.09,-41.17,0,*7F
1506931221.32,45548,18.19,74286.0,5.95,-38.97,-40.15,0,*79
1506931222.55,45549,18.19,74278.8,5.95,-36.91,-37.75,0,*76
1506931223.81,45550,18.19,74282.0,5.93,-37.51,-38.43,0,*7F
1506931225.08,45551,18.19,74282.0,5.93,-37.27,-37.99,0,*77
1506931226.31,45552,18.19,74282.5,5.93,-36.73,-37.45,0,*75
1506931227.59,45553,18.19,74286.8,5.93,-35.95,-36.91,0,*77
1506931228.8,45554,18.19,74284.0,5.95,-36.43,-37.15,0,*73
1506931230.05,45555,18.19,74292.8,5.93,-36.97,-37.87,0,*76
1506931231.26,45556,18.19,74290.5,5.95,-35.13,-35.89,0,*70
1506931232.5,45557,18.19,74288.8,5.95,-36.25,-37.27,0,*71
1506931233.75,45558,18.19,74288.0,5.95,-37.93,-38.79,0,*76
1506931234.98,45559,18.19,74288.0,5.95,-38.97,-39.97,0,*7D
1506931236.26,45560,18.19,74286.3,5.93,-38.23,-39.29,0,*7B
1506931237.5,45561,18.19,74286.3,5.93,-39.47,-40.65,0,*7F
1506931238.73,45562,18.19,74286.0,5.89,-40.91,-42.13,0,*71
1506931239.95,45563,18.19,74288.8,5.83,-38.23,-39.09,0,*7B
1506931241.2,45564,18.19,74288.0,5.85,-37.27,-38.23,0,*78
1506931242.45,45565,18.19,74292.3,5.83,-36.61,-37.21,0,*71
1506931243.68,45566,18.19,74292.3,5.85,-35.01,-35.77,0,*70
1506931244.93,45567,18.19,74294.8,5.85,-34.95,-35.77,0,*7D
1506931246.21,45568,18.19,74290.0,5.89,-35.83,-36.61,0,*7C
1506931247.48,45569,18.19,74292.8,5.93,-36.73,-37.63,0,*79
1506931248.74,45570,18.19,74294.0,5.89,-37.21,-38.17,0,*70
1506931249.97,45571,18.19,74296.0,5.91,-36.19,-37.09,0,*72
1506931251.2,45572,18.19,74292.3,5.91,-36.73,-37.69,0,*7B
1506931252.44,45573,18.19,74292.3,5.91,-36.73,-37.63,0,*70
1506931253.67,45574,18.19,74292.5,5.89,-36.73,-37.57,0,*79
1506931254.9,45575,18.19,74286.5,5.91,-36.01,-36.79,0,*79
1506931256.13,45576,18.19,74284.0,5.91,-36.19,-37.09,0,*75
1506931257.34,45577,18.25,74288.3,5.91,-36.01,-36.73,0,*71
1506931258.55,45578,18.25,74288.5,5.91,-37.87,-38.97,0,*75
1506931259.79,45579,18.25,74290.3,5.93,-37.45,-38.43,0,*71
1506931261.02,45580,18.25,74292.8,5.95,-37.03,-37.99,0,*7B
1506931262.29,45581,18.25,74294.5,5.93,-36.67,-37.51,0,*7B
1506931263.52,45582,18.25,74294.3,5.91,-36.49,-37.27,0,*77
1506931264.78,45583,18.25,74294.8,5.91,-36.61,-37.63,0,*7C
1506931266.02,45584,18.25,74292.5,5.91,-37.63,-38.43,0,*75
1506931267.28,45585,18.25,74294.8,5.91,-36.91,-37.63,0,*75
1506931268.56,45586,18.25,74296.5,5.89,-36.79,-37.51,0,*78
1506931269.79,45587,18.25,74292.5,5.91,-36.31,-37.09,0,*71
1506931271.01,45588,18.25,74294.3,5.89,-37.75,-38.73,0,*74
1506931272.29,45589,18.25,74298.0,5.89,-37.93,-38.91,0,*71
1506931273.55,45590,18.25,74300.3,5.89,-36.37,-37.15,0,*75
1506931274.78,45591,18.25,74300.0,5.91,-35.65,-36.67,0,*7D
1506931276.02,45592,18.25,74296.5,5.91,-34.47,-35.35,0,*7B
1506931277.28,45593,18.25,74298.3,5.93,-35.23,-36.01,0,*7F
1506931278.54,45594,18.25,74296.5,5.95,-35.35,-36.25,0,*7F
1506931279.76,45595,18.25,74296.0,5.95,-35.13,-35.89,0,*7F
1506931281.01,45596,18.25,74298.3,5.97,-36.25,-36.85,0,*77
1506931282.22,45597,18.25,74296.3,5.99,-36.19,-37.15,0,*7F
1506931283.51,45598,18.25,74298.5,5.97,-36.91,-37.81,0,*73
1506931284.75,45599,18.25,74294.8,5.97,-34.59,-35.47,0,*7C
1506931285.99,45600,18.25,74294.0,6.01,-35.41,-36.19,0,*73
1506931287.22,45601,18.25,74292.0,5.99,-35.23,-36.19,0,*74
1506931288.48,45602,18.25,74292.5,6.01,-34.83,-35.59,0,*79
1506931289.72,45603,18.31,74296.8,6.03,-34.31,-35.01,0,*7E
1506931290.98,45604,18.31,74298.8,6.03,-34.83,-35.65,0,*72
1506931292.23,45605,18.31,74298.0,6.03,-34.83,-35.77,0,*70
1506931293.48,45606,18.31,74298.8,6.07,-34.35,-35.23,0,*7B
1506931294.71,45607,18.31,74300.3,6.07,-34.59,-35.29,0,*7A
1506931295.94,45608,18.31,74298.8,6.07,-35.71,-36.61,0,*71
1506931297.19,45609,18.25,74298.3,6.13,-34.31,-35.17,0,*72
1506931298.43,45610,18.25,74292.5,6.13,-35.01,-35.77,0,*7E
1506931299.71,45611,18.31,74294.5,6.13,-35.83,-36.61,0,*71
1506931300.99,45612,18.25,74292.3,6.13,-36.61,-37.51,0,*7F
1506931302.24,45613,18.31,74294.8,6.13,-35.65,-36.43,0,*7B
1506931303.49,45614,18.25,74292.3,6.13,-36.37,-37.27,0,*7B
1506931304.75,45615,18.31,74296.0,6.09,-37.57,-38.49,0,*71
1506931306.0,45616,18.25,74294.5,6.09,-37.15,-38.11,0,*79
1506931307.26,45617,18.25,74292.8,6.09,-38.49,-39.35,0,*79
1506931308.52,45618,18.25,74290.3,6.09,-37.51,-38.35,0,*71
1506931309.78,45619,18.31,74290.8,6.05,-37.63,-38.55,0,*7B
1506931311.01,45620,18.31,74290.8,6.05,-36.55,-37.45,0,*7B
1506931312.26,45621,18.31,74292.5,6.05,-34.83,-35.59,0,*7C
1506931313.52,45622,18.25,74290.0,6.07,-36.37,-37.69,0,*71
1506931314.75,45623,18.25,74290.0,6.05,-35.29,-36.07,0,*77
1506931316.01,45624,18.31,74288.5,6.09,-34.25,-35.07,0,*72
1506931317.29,45625,18.31,74290.8,6.13,-34.65,-35.41,0,*7E
1506931318.54,45626,18.31,74290.0,6.13,-34.35,-35.17,0,*7B
1506931319.75,45627,18.25,74280.5,6.15,-33.95,-34.71,0,*70
1506931320.97,45628,18.31,74286.3,6.17,-35.89,-36.85,0,*7F
1506931322.23,45629,18.31,74284.3,6.15,-37.09,-37.93,0,*70
1506931323.45,45630,18.31,74286.3,6.17,-37.27,-38.05,0,*76
1506931324.66,45631,18.31,74286.0,6.15,-35.77,-36.73,0,*7D
1506931325.86,45632,18.31,74284.0,6.15,-35.59,-36.43,0,*71
1506931327.13,45633,18.31,74284.8,6.17,-34.47,-35.41,0,*7D
1506931328.36,45634,18.31,74288.3,6.19,-34.89,-35.83,0,*78
1506931329.62,45635,18.31,74284.0,6.19,-36.49,-37.51,0,*7A
1506931330.83,45636,18.31,74282.3,6.19,-35.71,-36.67,0,*75
1506931332.09,45637,18.31,74278.0,6.19,-36.61,-37.39,0,*7C
1506931333.35,45638,18.31,74282.5,6.17,-35.71,-36.49,0,*79
1506931334.58,45639,18.31,74280.5,6.19,-35.13,-35.83,0,*77
1506931335.81,45640,18.31,74276.0,6.19,-35.53,-36.43,0,*72
1506931337.07,45641,18.31,74276.0,6.19,-36.25,-37.21,0,*74
1506931338.28,45642,18.31,74276.8,6.19,-35.89,-36.67,0,*71
1506931339.5,45643,18.31,74280.3,6.21,-37.93,-38.73,0,*79
1506931340.76,45644,18.31,74282.5,6.19,-35.83,-36.49,0,*71
1506931341.96,45645,18.31,74284.0,6.19,-36.19,-36.97,0,*73
1506931343.19,45646,18.31,74286.0,6.19,-35.53,-36.43,0,*74
1506931344.42,45647,18.31,74284.5,6.19,-34.35,-35.17,0,*76
1506931345.68,45648,18.31,74286.8,6.21,-34.53,-35.35,0,*72
1506931346.94,45649,18.31,74288.8,6.25,-35.41,-36.25,0,*77
1506931348.19,45650,18.31,74288.0,6.23,-35.59,-36.37,0,*73
1506931349.42,45651,18.31,74284.8,6.23,-36.73,-37.57,0,*7E
1506931350.67,45652,18.31,74284.3,6.23,-36.13,-36.97,0,*76
1506931351.93,45653,18.31,74282.5,6.23,-35.77,-36.61,0,*7F
1506931353.16,45654,18.31,74284.3,6.23,-36.55,-37.27,0,*78
1506931354.44,45655,18.31,74288.3,6.23,-35.41,-36.37,0,*7F
1506931355.7,45656,18.31,74290.0,6.23,-35.07,-35.77,0,*79
1506931356.96,45657,18.31,74290.8,6.23,-34.83,-35.59,0,*79
1506931358.2,45658,18.31,74288.3,6.25,-34.65,-35.59,0,*78
1506931359.43,45659,18.31,74282.5,6.25,-36.79,-37.57,0,*7A
1506931360.66,45660,18.31,74280.5,6.25,-35.41,-36.19,0,*73
1506931361.92,45661,18.31,74284.8,6.25,-36.25,-37.51,0,*7E
1506931363.18,45662,18.31,74288.0,6.27,-35.77,-36.37,0,*7A
1506931364.42,45663,18.31,74290.0,6.29,-35.53,-36.49,0,*7A
1506931365.7,45664,18.31,74288.0,6.27,-35.07,-35.89,0,*7D
1506931366.92,45665,18.31,74292.0,6.29,-35.17,-36.13,0,*73
1506931368.16,45666,18.31,74292.5,6.27,-35.77,-36.73,0,*7E
1506931369.43,45667,18.31,74288.0,6.27,-35.41,-36.37,0,*7A
1506931370.66,45668,18.31,74294.3,6.29,-35.23,-35.89,0,*79
1506931371.93,45669,18.38,74294.8,6.31,-34.59,-35.53,0,*7A
1506931373.21,45670,18.31,74292.5,6.31,-34.53,-35.35,0,*78
1506931374.49,45671,18.31,74288.5,6.35,-34.95,-36.13,0,*70
1506931375.74,45672,18.31,74290.3,6.37,-35.83,-36.61,0,*72
1506931376.97,45673,18.31,74288.8,6.37,-36.43,-37.39,0,*70
1506931378.22,45674,18.38,74288.5,6.35,-37.57,-38.49,0,*79
1506931379.48,45675,18.38,74284.3,6.31,-37.99,-39.09,0,*7B
1506931380.76,45676,18.31,74286.3,6.31,-38.79,-39.97,0,*7E
1506931382.02,45677,18.31,74284.8,6.27,-37.63,-38.55,0,*73
1506931383.28,45678,18.31,74286.3,6.27,-37.51,-38.43,0,*7A
1506931384.55,45679,18.38,74284.3,6.27,-37.21,-38.17,0,*7D
1506931385.75,45680,18.38,74284.0,6.25,-34.89,-35.59,0,*7F
1506931386.96,45681,18.38,74280.5,6.29,-35.59,-36.55,0,*71
1506931388.19,45682,18.38,74284.5,6.29,-34.83,-35.71,0,*71
1506931389.45,45683,18.38,74280.3,6.27,-34.59,-35.53,0,*79
1506931390.65,45684,18.38,74276.8,6.29,-36.19,-37.03,0,*71
1506931391.88,45685,18.31,74272.8,6.29,-38.79,-39.85,0,*78
1506931393.13,45686,18.38,74274.3,6.27,-38.17,-39.41,0,*75
1506931394.39,45687,18.38,74272.5,6.27,-39.41,-40.53,0,*7B
1506931395.65,45688,18.38,74270.5,6.23,-37.27,-37.93,0,*72
1506931396.9,45689,18.31,74270.3,6.23,-37.57,-38.67,0,*70
1506931398.17,45690,18.38,74266.8,6.23,-39.09,-40.21,0,*70
1506931399.37,45691,18.38,74276.0,6.19,-38.97,-40.15,0,*79
1506931400.63,45692,18.38,74276.8,6.17,-40.41,-41.61,0,*72
1506931401.87,45693,18.38,74284.0,6.17,-38.35,-39.23,0,*76
1506931403.11,45694,18.38,74284.3,6.15,-36.97,-37.93,0,*70
1506931404.34,45695,18.38,74290.3,6.15,-35.77,-36.61,0,*70
1506931405.56,45696,18.38,74286.8,6.15,-36.97,-37.69,0,*77
1506931406.77,45697,18.38,74292.5,6.15,-36.97,-38.05,0,*73
1506931408.0,45698,18.38,74288.8,6.17,-36.07,-37.03,0,*7E
1506931409.27,45699,18.38,74294.0,6.17,-35.23,-36.37,0,*7C
1506931410.53,45700,18.38,74288.8,6.17,-36.31,-37.09,0,*71
1506931411.76,45701,18.38,74288.0,6.21,-35.29,-36.25,0,*70
1506931412.99,45702,18.38,74284.3,6.19,-37.15,-38.11,0,*7C
1506931414.23,45703,18.38,74294.5,6.19,-37.51,-38.35,0,*7B
1506931415.46,45704,18.38,74294.3,6.19,-37.15,-37.93,0,*7F
1506931416.74,45705,18.38,74296.5,6.17,-37.99,-39.15,0,*74
1506931417.96,45706,18.38,74296.0,6.15,-38.43,-39.41,0,*7C
1506931419.22,45707,18.38,74300.0,6.15,-38.49,-39.59,0,*7E
1506931420.45,45708,18.38,74302.0,6.13,-37.15,-38.05,0,*79
1506931421.7,45709,18.38,74300.5,6.13,-37.15,-38.23,0,*7C
1506931422.96,45710,18.38,74304.3,6.13,-36.55,-37.51,0,*7B
1506931424.24,45711,18.38,74306.3,6.13,-35.07,-35.83,0,*73
1506931425.49,45712,18.38,74302.5,6.15,-34.83,-35.77,0,*70
1506931426.74,45713,18.38,74300.0,6.17,-34.31,-35.13,0,*78
1506931427.98,45714,18.38,74298.3,6.19,-34.89,-35.83,0,*7B
1506931429.24,45715,18.38,74296.5,6.21,-34.95,-35.53,0,*71
1506931430.48,45716,18.38,74302.0,6.23,-34.71,-35.47,0,*7F
1506931431.78,45717,18.44,74302.0,6.23,-35.07,-35.95,0,*71
1506931433.02,45718,18.38,74298.0,6.25,-33.73,-34.47,0,*73
1506931434.27,45719,18.38,74294.5,6.27,-35.17,-36.13,0,*77
1506931435.53,45720,18.44,74296.5,6.25,-36.91,-37.69,0,*7E
1506931436.79,45721,18.44,74294.0,6.25,-37.93,-38.91,0,*74
1506931438.02,45722,18.38,74290.0,6.25,-37.87,-38.91,0,*72
1506931439.28,45723,18.44,74288.0,6.23,-37.45,-38.29,0,*78
1506931440.54,45724,18.38,74286.0,6.23,-39.09,-40.21,0,*7E
1506931441.76,45725,18.44,74286.3,6.19,-39.65,-40.73,0,*7B
1506931442.99,45726,18.38,74284.3,6.19,-39.29,-40.35,0,*72
1506931444.25,45727,18.44,74288.0,6.15,-39.59,-40.79,0,*70
1506931445.49,45728,18.38,74288.0,6.15,-38.23,-39.29,0,*78
1506931446.73,45729,18.44,74288.0,6.15,-37.09,-37.87,0,*74
1506931447.93,45730,18.44,74290.8,6.15,-36.31,-37.27,0,*7C
1506931449.18,45731,18.44,74288.8,6.17,-36.37,-37.27,0,*79
1506931450.42,45732,18.44,74288.3,6.15,-35.07,-36.01,0,*7D
1506931451.69,45733,18.44,74286.0,6.17,-34.95,-35.71,0,*70
1506931452.94,45734,18.44,74282.5,6.17,-35.35,-36.31,0,*7B
1506931454.17,45735,18.44,74278.8,6.21,-35.83,-36.67,0,*71
1506931455.38,45736,18.44,74286.3,6.21,-36.85,-37.75,0,*75
1506931456.61,45737,18.44,74284.8,6.19,-35.47,-36.25,0,*76
1506931457.88,45738,18.44,74286.5,6.23,-35.13,-35.95,0,*79
1506931459.11,45739,18.44,74284.8,6.21,-36.25,-37.15,0,*76
1506931460.33,45740,18.44,74286.3,6.21,-35.65,-36.43,0,*7D
1506931461.56,45741,18.44,74290.5,6.23,-36.55,-37.45,0,*79
1506931462.83,45742,18.44,74290.0,6.23,-34.53,-35.47,0,*7E
1506931464.07,45743,18.44,74286.5,6.25,-34.53,-35.47,0,*79
1506931465.28,45744,18.44,74290.8,6.25,-35.13,-36.01,0,*7A
1506931466.51,45745,18.44,74284.0,6.25,-36.01,-37.09,0,*72
1506931467.77,45746,18.44,74284.0,6.25,-36.91,-37.93,0,*7B
1506931469.02,45747,18.44,74284.8,6.27,-38.43,-39.53,0,*7B
1506931470.3,45748,18.44,74282.8,6.23,-37.09,-38.11,0,*76
1506931471.56,45749,18.44,74284.3,6.23,-36.43,-37.69,0,*78
1506931472.79,45750,18.44,74284.5,6.25,-35.65,-36.55,0,*7F
1506931474.02,45751,18.44,74288.0,6.25,-36.37,-37.27,0,*7E
1506931475.24,45752,18.44,74288.8,6.25,-36.73,-37.75,0,*7A
1506931476.49,45753,18.44,74286.8,6.23,-36.61,-37.57,0,*7E
1506931477.75,45754,18.44,74286.3,6.23,-35.95,-36.73,0,*76
1506931479.01,45755,18.44,74284.3,6.27,-35.35,-36.19,0,*75
1506931480.24,45756,18.44,74288.3,6.25,-35.29,-36.13,0,*73
1506931481.5,45757,18.44,74294.5,6.27,-34.83,-35.59,0,*7C
1506931482.74,45758,18.44,74296.0,6.29,-34.95,-35.89,0,*77
1506931484.0,45759,18.44,74292.8,6.31,-36.13,-37.15,0,*74
1506931485.24,45760,18.44,74290.3,6.31,-36.13,-36.85,0,*76
1506931486.48,45761,18.44,74290.0,6.31,-34.77,-35.71,0,*7F
1506931487.73,45762,18.44,74288.3,6.35,-34.47,-35.23,0,*7C
1506931488.99,45763,18.5,74288.0,6.35,-34.31,-35.13,0,*7F
1506931490.22,45764,18.44,74284.8,6.35,-36.07,-36.97,0,*70
1506931491.49,45765,18.44,74284.5,6.35,-35.65,-36.61,0,*7F
1506931492.78,45766,18.5,74288.0,6.35,-34.83,-35.41,0,*74
1506931493.98,45767,18.44,74290.0,6.37,-35.47,-36.55,0,*78
1506931495.21,45768,18.44,74284.3,6.37,-37.51,-38.55,0,*7C
1506931496.43,45769,18.44,74284.5,6.37,-38.11,-39.09,0,*7E
1506931497.68,45770,18.5,74286.3,6.35,-37.09,-38.05,0,*7F
1506931498.94,45771,18.5,74288.5,6.31,-37.57,-38.49,0,*79
1506931500.21,45772,18.5,74288.0,6.31,-38.11,-39.29,0,*70
1506931501.44,45773,18.5,74290.0,6.29,-37.81,-38.61,0,*73
1506931502.67,45774,18.5,74288.5,6.29,-37.69,-38.55,0,*75
1506931503.9,45775,18.5,74286.5,6.29,-36.19,-36.91,0,*74
1506931505.12,45776,18.5,74292.0,6.29,-34.25,-35.07,0,*76
1506931506.37,45777,18.5,74290.8,6.29,-34.31,-35.07,0,*72
1506931507.63,45778,18.44,74286.8,6.35,-35.83,-36.73,0,*78
1506931508.91,45779,18.5,74282.3,6.35,-35.23,-36.25,0,*70
1506931510.13,45780,18.5,74282.8,6.37,-35.59,-36.37,0,*7A
1506931511.41,45781,18.5,74282.0,6.35,-37.39,-38.29,0,*7C
1506931512.67,45782,18.5,74278.0,6.35,-37.27,-38.29,0,*70
1506931513.95,45783,18.5,74278.8,6.35,-39.29,-40.29,0,*7E
1506931515.2,45784,18.5,74276.8,6.31,-36.85,-37.69,0,*70
1506931516.48,45785,18.5,74276.8,6.31,-38.29,-39.29,0,*73
1506931517.74,45786,18.5,74276.5,6.27,-36.67,-37.51,0,*72
1506931519.0,45787,18.5,74274.0,6.27,-36.73,-37.69,0,*7D
1506931520.21,45788,18.5,74278.3,6.29,-35.71,-36.55,0,*73
1506931521.43,45789,18.5,74280.5,6.29,-37.51,-38.85,0,*71
1506931522.69,45790,18.5,74284.3,6.29,-37.39,-38.23,0,*7B
1506931523.92,45791,18.5,74278.8,6.27,-38.85,-40.03,0,*71
1506931525.19,45792,18.5,74282.8,6.25,-38.49,-39.79,0,*73
1506931526.48,45793,18.5,74278.0,6.23,-39.59,-40.59,0,*78
1506931527.69,45794,18.5,74282.8,6.19,-37.33,-38.35,0,*71
1506931528.92,45795,18.5,74278.5,6.21,-36.79,-37.75,0,*7F
1506931530.15,45796,18.5,74276.8,6.19,-37.57,-38.49,0,*7A
1506931531.42,45797,18.5,74272.3,6.19,-37.21,-38.29,0,*7C
1506931532.66,45798,18.5,74274.0,6.21,-38.11,-39.29,0,*75
1506931533.89,45799,18.5,74274.5,6.19,-38.29,-39.35,0,*79
1506931535.13,45800,18.5,74274.3,6.15,-39.85,-40.85,0,*78
1506931536.35,45801,18.5,74270.5,6.15,-38.29,-39.47,0,*7E
1506931537.6,45802,18.5,74270.0,6.15,-38.23,-39.41,0,*71
1506931538.82,45803,18.5,74272.3,6.13,-37.45,-38.43,0,*7A
1506931540.1,45804,18.5,74264.0,6.13,-37.93,-38.91,0,*79
1506931541.35,45805,18.5,74272.0,6.13,-37.09,-38.05,0,*76
1506931542.63,45806,18.5,74270.5,6.13,-37.69,-38.67,0,*77
1506931543.86,45807,18.5,74266.5,6.09,-37.57,-38.55,0,*71
1506931545.09,45808,18.5,74272.8,6.13,-38.61,-39.85,0,*73
1506931546.32,45809,18.5,74268.3,6.09,-40.03,-41.11,0,*70
1506931547.56,45810,18.5,74268.3,6.07,-37.57,-38.67,0,*78
1506931548.76,45811,18.5,74272.0,6.07,-38.17,-39.47,0,*71
1506931550.02,45812,18.5,74274.0,6.05,-37.21,-38.17,0,*7E
1506931551.28,45813,18.5,74274.3,6.05,-38.61,-39.79,0,*7D
1506931552.54,45814,18.5,74282.3,6.03,-39.29,-40.59,0,*7D
1506931553.77,45815,18.5,74288.3,6.03,-37.33,-38.11,0,*7A
1506931555.01,45816,18.5,74288.0,6.03,-36.73,-37.63,0,*76
1506931556.24,45817,18.5,74288.5,6.03,-36.55,-37.51,0,*72
1506931557.51,45818,18.5,74290.3,6.03,-36.91,-37.81,0,*78
1506931558.74,45819,18.5,74292.0,6.07,-36.97,-37.93,0,*78
1506931560.01,45820,18.5,74284.8,6.05,-36.73,-37.63,0,*75
1506931561.26,45821,18.5,74290.8,6.05,-37.99,-38.97,0,*75
1506931562.55,45822,18.5,74288.3,6.05,-38.79,-39.97,0,*76
1506931563.8,45823,18.5,74286.5,6.05,-37.21,-38.05,0,*7F
1506931565.06,45824,18.56,74294.0,6.05,-36.67,-37.63,0,*74
1506931566.32,45825,18.5,74292.8,6.05,-38.17,-39.23,0,*76
1506931567.57,45826,18.5,74298.8,6.05,-36.49,-37.45,0,*7E
1506931568.82,45827,18.5,74298.0,6.05,-36.25,-37.03,0,*77
1506931570.04,45828,18.5,74298.0,6.07,-35.13,-35.89,0,*7C
1506931571.28,45829,18.56,74298.0,6.07,-34.77,-35.65,0,*7C
1506931572.5,45830,18.56,74296.8,6.07,-35.13,-36.01,0,*76
1506931573.73,45831,18.5,74296.8,6.13,-35.17,-36.01,0,*76
1506931575.0,45832,18.56,74296.8,6.13,-34.35,-35.23,0,*77
1506931576.21,45833,18.56,74298.8,6.15,-35.47,-36.43,0,*71
1506931577.44,45834,18.56,74292.0,6.17,-35.71,-36.67,0,*77
1506931578.72,45835,18.56,74296.5,6.17,-35.23,-36.25,0,*77
1506931579.93,45836,18.56,74296.3,6.19,-36.31,-37.33,0,*7C
1506931581.19,45837,18.56,74298.5,6.19,-36.49,-37.63,0,*77
1506931582.4,45838,18.56,74298.8,6.19,-36.43,-37.33,0,*77
1506931583.65,45839,18.56,74296.5,6.17,-35.59,-36.37,0,*75
1506931584.88,45840,18.56,74296.0,6.19,-34.89,-35.83,0,*75
1506931586.09,45841,18.56,74296.3,6.19,-35.89,-36.85,0,*70
1506931587.29,45842,18.56,74296.0,6.21,-36.19,-37.15,0,*7A
1506931588.51,45843,18.56,74300.8,6.21,-35.89,-36.79,0,*7A
1506931589.74,45844,18.56,74304.5,6.21,-34.25,-35.07,0,*70
1506931590.97,45845,18.56,74302.5,6.23,-33.95,-34.71,0,*7F
1506931592.23,45846,18.56,74300.0,6.25,-34.83,-35.65,0,*7E
1506931593.47,45847,18.56,74296.8,6.29,-34.95,-35.77,0,*77
1506931594.69,45848,18.56,74298.3,6.29,-38.17,-39.03,0,*71
1506931595.95,45849,18.56,74292.0,6.27,-37.39,-38.17,0,*79
1506931597.15,45850,18.56,74294.0,6.25,-37.27,-38.05,0,*7F
1506931598.41,45851,18.56,74294.5,6.25,-36.91,-37.69,0,*77
1506931599.64,45852,18.56,74290.8,6.25,-36.37,-37.27,0,*72
1506931600.87,45853,18.56,74290.5,6.25,-35.65,-36.55,0,*73
1506931602.1,45854,18.56,74288.5,6.25,-36.73,-37.69,0,*7E
1506931603.34,45855,18.56,74290.0,6.25,-36.37,-37.15,0,*74
1506931604.58,45856,18.56,74284.5,6.25,-35.47,-36.25,0,*71
1506931605.84,45857,18.56,74288.0,6.27,-34.59,-35.53,0,*7E
1506931607.1,45858,18.56,74290.0,6.29,-35.07,-36.13,0,*72
1506931608.35,45859,18.56,74288.5,6.29,-35.95,-37.09,0,*72
1506931609.56,45860,18.56,74292.0,6.29,-35.71,-36.55,0,*7A
1506931610.78,45861,18.56,74288.5,6.29,-35.01,-35.89,0,*7E
1506931612.03,45862,18.56,74280.3,6.31,-37.03,-37.93,0,*7D
1506931613.28,45863,18.56,74284.0,6.31,-38.97,-40.09,0,*7D
1506931614.56,45864,18.56,74276.3,6.27,-38.67,-40.21,0,*78
1506931615.84,45865,18.56,74284.5,6.23,-39.23,-40.29,0,*74
1506931617.1,45866,18.56,74290.5,6.23,-39.65,-40.79,0,*70
1506931618.3,45867,18.63,74284.5,6.21,-39.35,-40.47,0,*7B
1506931619.53,45868,18.56,74284.0,6.19,-39.29,-40.35,0,*77
1506931620.77,45869,18.56,74278.5,6.17,-37.87,-38.61,0,*7C
1506931622.01,45870,18.63,74294.8,6.17,-38.35,-39.53,0,*72
1506931623.27,45871,18.56,74292.3,6.15,-39.03,-40.09,0,*74
1506931624.53,45872,18.63,74284.8,6.15,-37.69,-38.49,0,*7E
1506931625.75,45873,18.63,74288.0,6.15,-35.41,-36.19,0,*7C
1506931627.03,45874,18.63,74292.3,6.17,-35.23,-36.25,0,*72
1506931628.29,45875,18.63,74296.8,6.15,-37.51,-38.49,0,*72
1506931629.52,45876,18.56,74290.0,6.15,-37.33,-38.29,0,*73
1506931630.8,45877,18.63,74294.8,6.17,-35.23,-36.25,0,*71
1506931632.06,45878,18.63,74292.3,6.17,-36.67,-37.63,0,*7E
1506931633.3,45879,18.63,74290.3,6.17,-36.67,-37.57,0,*78
1506931634.55,45880,18.63,74290.3,6.17,-35.17,-36.13,0,*7B
1506931635.8,45881,18.63,74288.5,6.21,-35.35,-36.25,0,*7A
1506931637.03,45882,18.63,74292.8,6.21,-35.71,-36.49,0,*73
1506931638.23,45883,18.63,74302.3,6.21,-34.89,-35.71,0,*7C
1506931639.43,45884,18.63,74300.8,6.21,-36.19,-36.97,0,*7B
1506931640.68,45885,18.63,74304.0,6.23,-36.73,-37.69,0,*74
1506931641.93,45886,18.63,74300.8,6.23,-36.13,-36.97,0,*71
1506931643.19,45887,18.63,74296.8,6.23,-36.01,-36.79,0,*73
1506931644.42,45888,18.63,74298.8,6.25,-36.25,-37.27,0,*76
1506931645.66,45889,18.63,74300.0,6.25,-35.23,-36.01,0,*77
1506931646.89,45890,18.63,74300.0,6.25,-35.13,-36.13,0,*7F
1506931648.16,45891,18.63,74302.5,6.27,-35.01,-35.95,0,*72
1506931649.4,45892,18.63,74302.8,6.27,-35.89,-36.73,0,*7A
1506931650.66,45893,18.63,74302.3,6.27,-37.09,-37.87,0,*7B
1506931651.9,45894,18.63,74300.0,6.27,-35.89,-36.67,0,*79
1506931653.16,45895,18.63,74296.0,6.27,-34.59,-35.41,0,*73
1506931654.39,45896,18.63,74296.5,6.29,-33.67,-34.31,0,*72
1506931655.66,45897,18.63,74294.8,6.35,-33.43,-34.35,0,*7C
1506931656.91,45898,18.63,74302.5,6.35,-35.77,-36.79,0,*78
1506931658.16,45899,18.63,74298.0,6.35,-35.47,-36.37,0,*70
1506931659.45,45900,18.63,74292.0,6.35,-34.95,-35.83,0,*73
1506931660.68,45901,18.63,74296.3,6.35,-35.77,-36.73,0,*73
1506931661.92,45902,18.63,74306.5,6.37,-35.41,-36.37,0,*77
1506931663.14,45903,18.63,74310.0,6.37,-35.47,-36.37,0,*70
1506931664.38,45904,18.69,74302.5,6.39,-35.01,-35.77,0,*7C
1506931665.64,45905,18.63,74298.5,6.37,-36.61,-37.39,0,*7E
1506931666.85,45906,18.69,74296.8,6.37,-37.69,-38.73,0,*75
1506931668.09,45907,18.63,74288.5,6.37,-38.11,-39.29,0,*7A
1506931669.33,45908,18.63,74290.0,6.31,-38.17,-39.09,0,*77
1506931670.57,45909,18.63,74286.5,6.31,-38.17,-39.29,0,*74
1506931671.83,45910,18.69,74282.3,6.31,-37.45,-38.49,0,*73
1506931673.06,45911,18.63,74284.8,6.29,-37.03,-37.99,0,*7B
1506931674.32,45912,18.63,74286.3,6.27,-37.63,-38.61,0,*78
1506931675.57,45913,18.63,74288.3,6.27,-38.55,-39.71,0,*73
1506931676.82,45914,18.69,74288.3,6.27,-38.23,-39.35,0,*75
1506931678.08,45915,18.69,74290.8,6.27,-37.69,-38.85,0,*7F
1506931679.29,45916,18.69,74290.0,6.25,-37.45,-38.43,0,*7A
1506931680.58,45917,18.69,74296.8,6.23,-37.09,-38.23,0,*73
1506931681.86,45918,18.69,74288.8,6.23,-37.51,-38.29,0,*7B
1506931683.12,45919,18.69,74294.0,6.23,-37.09,-38.05,0,*79
1506931684.37,45920,18.69,74296.3,6.23,-37.75,-38.91,0,*75
1506931685.59,45921,18.69,74298.0,6.19,-38.35,-39.53,0,*79
1506931686.79,45922,18.69,74292.5,6.21,-38.35,-39.35,0,*71
1506931688.02,45923,18.69,74300.8,6.21,-37.33,-38.29,0,*75
1506931689.28,45924,18.69,74292.3,6.19,-37.21,-38.11,0,*71
1506931690.5,45925,18.69,74290.5,6.19,-37.63,-38.73,0,*72
1506931691.76,45926,18.69,74290.0,6.17,-36.73,-37.69,0,*7B
1506931692.99,45927,18.69,74294.8,6.17,-37.27,-38.35,0,*7C
1506931694.25,45928,18.69,74296.8,6.15,-38.79,-39.79,0,*7C
1506931695.48,45929,18.69,74296.0,6.15,-37.75,-38.79,0,*7F
1506931696.71,45930,18.69,74298.0,6.15,-37.93,-39.09,0,*79
1506931697.94,45931,18.69,74302.8,6.15,-37.33,-38.23,0,*7B
1506931699.19,45932,18.69,74302.0,6.15,-35.23,-36.13,0,*76
1506931700.46,45933,18.69,74306.5,6.15,-35.07,-35.95,0,*7C
1506931701.66,45934,18.69,74302.0,6.15,-35.77,-36.73,0,*77
1506931702.89,45935,18.69,74306.3,6.17,-36.31,-37.27,0,*75
1506931704.15,45936,18.69,74304.0,6.17,-36.91,-37.87,0,*76
1506931705.39,45937,18.69,74312.0,6.17,-35.77,-36.73,0,*76
1506931706.62,45938,18.69,74310.8,6.17,-35.71,-36.73,0,*7F